TimeAEST,TemperatureF,Dew PointF,Humidity,Sea Level PressureIn,VisibilityMPH,Wind Direction,Wind SpeedMPH,Gust SpeedMPH,PrecipitationIn,Events,Conditions,WindDirDegrees,DateUTC
12:00 AM,72,69,85,30.00,,SSE,9.2,,,,,160,2013-12-18 14:00:00
12:00 AM,73.4,68.0,83,29.98,6.2,SSE,9.2,-,N/A,,Mostly Cloudy,150,2013-12-18 14:00:00
1:00 AM,73.4,68.0,83,29.95,6.2,South,10.4,-,N/A,,Mostly Cloudy,170,2013-12-18 15:00:00
2:04 AM,71.6,69.8,94,29.95,6.2,SSE,5.8,-,N/A,,Overcast,150,2013-12-18 16:04:00
3:00 AM,72,68,83,29.94,,SSE,5.8,,,,,160,2013-12-18 17:00:00
3:00 AM,71.6,68.0,88,29.92,6.2,SSE,6.9,-,N/A,,Scattered Clouds,160,2013-12-18 17:00:00
4:00 AM,71.6,68.0,88,29.92,6.2,South,10.4,-,N/A,,Mostly Cloudy,170,2013-12-18 18:00:00
5:00 AM,71.6,68.0,88,29.92,6.2,South,12.7,-,N/A,,Mostly Cloudy,170,2013-12-18 19:00:00
6:00 AM,72,68,84,29.96,,SSE,12.7,,,,Overcast,160,2013-12-18 20:00:00
6:00 AM,71.6,68.0,88,29.95,6.2,SSE,12.7,-,N/A,,Mostly Cloudy,160,2013-12-18 20:00:00
7:00 AM,71.6,69.8,94,29.98,6.2,SSE,9.2,-,N/A,,Mostly Cloudy,150,2013-12-18 21:00:00
8:00 AM,77.0,71.6,83,29.98,6.2,SSE,10.4,-,N/A,,Scattered Clouds,160,2013-12-18 22:00:00
9:00 AM,78,71,72,29.99,9,SSE,11.5,,,,Haze,160,2013-12-18 23:00:00
9:00 AM,78.8,69.8,74,29.98,6.2,SSE,12.7,-,N/A,,Mostly Cloudy,150,2013-12-18 23:00:00
10:00 AM,82.4,69.8,66,29.98,6.2,SE,19.6,-,N/A,,Scattered Clouds,130,2013-12-19 00:00:00
11:00 AM,84.2,68.0,58,29.98,6.2,SE,21.9,-,N/A,,Scattered Clouds,130,2013-12-19 01:00:00
12:00 PM,84,68,50,29.98,,ESE,20.7,,,,Overcast,110,2013-12-19 02:00:00
12:00 PM,84.2,68.0,58,29.98,6.2,ESE,20.7,-,N/A,,Mostly Cloudy,110,2013-12-19 02:00:00
1:00 PM,82.4,73.4,74,29.95,6.2,East,20.7,-,N/A,,Scattered Clouds,90,2013-12-19 03:00:00
2:00 PM,84.2,68.0,58,29.95,6.2,ESE,21.9,-,N/A,,Scattered Clouds,110,2013-12-19 04:00:00
3:00 PM,84,67,48,29.95,11,ESE,20.7,,,,Haze,110,2013-12-19 05:00:00
3:00 PM,86.0,68.0,55,29.95,6.2,ESE,20.7,-,N/A,,Scattered Clouds,110,2013-12-19 05:00:00
4:00 PM,82.4,68.0,62,29.95,6.2,ESE,20.7,-,N/A,,Scattered Clouds,110,2013-12-19 06:00:00
5:00 PM,82.4,66.2,58,29.95,6.2,SE,23.0,-,N/A,,Scattered Clouds,130,2013-12-19 07:00:00
6:00 PM,74,70,85,29.98,,ESE,9.2,,,,,120,2013-12-19 08:00:00
6:00 PM,73.4,69.8,88,29.98,6.2,ESE,9.2,-,N/A,,Overcast,120,2013-12-19 08:00:00
7:00 PM,75.2,66.2,73,29.98,6.2,ESE,12.7,-,N/A,,Scattered Clouds,120,2013-12-19 09:00:00
8:00 PM,77.0,66.2,69,30.01,6.2,ESE,12.7,-,N/A,,Mostly Cloudy,110,2013-12-19 10:00:00
9:00 PM,74,68,76,30.02,,SSE,9.2,,,,Overcast,150,2013-12-19 11:00:00
9:00 PM,73.4,68.0,83,30.01,6.2,SSE,9.2,-,N/A,,Mostly Cloudy,150,2013-12-19 11:00:00
10:00 PM,73.4,66.2,78,30.01,6.2,South,10.4,-,N/A,,Mostly Cloudy,170,2013-12-19 12:00:00
11:00 PM,73.4,66.2,78,30.04,6.2,South,10.4,-,N/A,,Scattered Clouds,170,2013-12-19 13:00:00